Location: *
(17.3280°S, 114.7300°W)
Time: 05:50:16
(UTC+00:00)

CZ-3 R/B - Pass Details

Date: 05 August 2020
Orbit: 367 x 10243 km, 28.3° (Epoch: 20 September)

Event Time Altitude Azimuth Distance (km) Brightness Sun altitude
Exits shadow 13:10:32 - 277° (W) 8,311 5.7 -12.9°
Reaches altitude 10° 13:12:24 10° 276° (W) 7,767 5.5 -12.4°
Maximum altitude 13:31:11 50° 204° (SSW) 1,872 2.7 -8.1°
Drops below altitude 10° 13:36:42 10° 127° (SE) 2,454 4.2 -6.8°
Sets 13:38:21 0° 120° (ESE) 3,043 4.8 -6.4°
